TimeEST,TemperatureF,Dew PointF,Humidity,Sea Level PressureIn,VisibilityMPH,Wind Direction,Wind SpeedMPH,Gust SpeedMPH,PrecipitationIn,Events,Conditions,WindDirDegrees,DateUTC
12:15 AM,53.6,51.8,94,30.27,1.0,NNE,3.5,-,N/A,,Unknown,20,2013-01-27 05:15:00
12:35 AM,53.6,53.6,100,30.27,10.0,North,4.6,-,N/A,,Clear,10,2013-01-27 05:35:00
12:55 AM,55.4,53.6,94,30.28,10.0,North,3.5,-,N/A,,Clear,10,2013-01-27 05:55:00
1:15 AM,55.4,53.6,94,30.28,10.0,NNE,4.6,-,N/A,,Scattered Clouds,20,2013-01-27 06:15:00
1:35 AM,55.4,53.6,94,30.29,10.0,NNE,5.8,-,N/A,,Mostly Cloudy,20,2013-01-27 06:35:00
1:55 AM,55.4,53.6,94,30.29,10.0,NNE,5.8,-,N/A,,Mostly Cloudy,20,2013-01-27 06:55:00
2:15 AM,55.4,53.6,94,30.29,10.0,NNE,6.9,-,N/A,,Scattered Clouds,30,2013-01-27 07:15:00
2:35 AM,55.4,53.6,94,30.29,10.0,NE,6.9,-,N/A,,Clear,40,2013-01-27 07:35:00
2:55 AM,55.4,53.6,94,30.30,10.0,NE,6.9,-,N/A,,Clear,40,2013-01-27 07:55:00
3:15 AM,55.4,53.6,94,30.30,10.0,NNE,5.8,-,N/A,,Clear,30,2013-01-27 08:15:00
3:35 AM,55.4,53.6,94,30.30,10.0,NE,4.6,-,N/A,,Clear,50,2013-01-27 08:35:00
3:55 AM,55.4,53.6,94,30.31,10.0,NNE,4.6,-,N/A,,Clear,30,2013-01-27 08:55:00
4:15 AM,53.6,51.8,94,30.31,10.0,NNE,4.6,-,N/A,,Clear,30,2013-01-27 09:15:00
4:35 AM,53.6,51.8,94,30.31,10.0,NE,3.5,-,N/A,,Clear,50,2013-01-27 09:35:00
4:55 AM,53.6,51.8,94,30.31,10.0,NE,4.6,-,N/A,,Clear,40,2013-01-27 09:55:00
5:15 AM,53.6,51.8,94,30.31,10.0,NE,4.6,-,N/A,,Clear,40,2013-01-27 10:15:00
5:35 AM,53.6,51.8,94,30.32,10.0,NE,4.6,-,N/A,,Clear,40,2013-01-27 10:35:00
5:55 AM,53.6,51.8,94,30.32,10.0,NNE,5.8,-,N/A,,Clear,20,2013-01-27 10:55:00
6:15 AM,55.4,53.6,94,30.32,10.0,NNE,6.9,-,N/A,,Clear,30,2013-01-27 11:15:00
6:35 AM,55.4,53.6,94,30.33,10.0,NNE,6.9,-,N/A,,Clear,20,2013-01-27 11:35:00
6:55 AM,55.4,53.6,94,30.34,10.0,NNE,6.9,-,N/A,,Clear,20,2013-01-27 11:55:00
7:15 AM,55.4,53.6,94,30.34,10.0,NNE,6.9,-,N/A,,Clear,30,2013-01-27 12:15:00
7:35 AM,55.4,53.6,94,30.35,10.0,NNE,5.8,-,N/A,,Clear,30,2013-01-27 12:35:00
7:55 AM,55.4,53.6,94,30.36,10.0,NE,6.9,-,N/A,,Clear,40,2013-01-27 12:55:00
8:15 AM,57.2,53.6,88,30.37,10.0,NE,8.1,-,N/A,,Clear,40,2013-01-27 13:15:00
8:35 AM,59.0,55.4,88,30.37,10.0,NE,9.2,-,N/A,,Clear,40,2013-01-27 13:35:00
8:55 AM,60.8,55.4,82,30.38,10.0,NE,10.4,18.4,N/A,,Clear,40,2013-01-27 13:55:00
9:15 AM,62.6,55.4,77,30.39,10.0,NE,11.5,-,N/A,,Clear,40,2013-01-27 14:15:00
9:35 AM,62.6,53.6,72,30.39,10.0,NE,17.3,20.7,N/A,,Clear,50,2013-01-27 14:35:00
9:55 AM,62.6,53.6,72,30.40,10.0,ENE,13.8,19.6,N/A,,Clear,60,2013-01-27 14:55:00
10:15 AM,64.4,53.6,68,30.41,10.0,NE,17.3,23.0,N/A,,Clear,40,2013-01-27 15:15:00
10:35 AM,64.4,53.6,68,30.42,10.0,NE,16.1,20.7,N/A,,Clear,50,2013-01-27 15:35:00
10:55 AM,64.4,51.8,64,30.42,10.0,NE,16.1,-,N/A,,Clear,50,2013-01-27 15:55:00
11:15 AM,64.4,51.8,64,30.42,10.0,ENE,19.6,25.3,N/A,,Clear,60,2013-01-27 16:15:00
11:35 AM,64.4,51.8,64,30.42,10.0,ENE,17.3,25.3,N/A,,Clear,60,2013-01-27 16:35:00
11:55 AM,64.4,51.8,64,30.42,10.0,ENE,19.6,25.3,N/A,,Clear,60,2013-01-27 16:55:00
12:15 PM,64.4,51.8,64,30.42,10.0,ENE,19.6,26.5,N/A,,Clear,60,2013-01-27 17:15:00
12:35 PM,64.4,51.8,64,30.41,10.0,ENE,18.4,21.9,N/A,,Clear,60,2013-01-27 17:35:00
12:55 PM,64.4,51.8,64,30.41,10.0,NE,18.4,21.9,N/A,,Clear,50,2013-01-27 17:55:00
1:15 PM,64.4,51.8,64,30.40,10.0,ENE,17.3,24.2,N/A,,Clear,60,2013-01-27 18:15:00
1:35 PM,66.2,51.8,60,30.39,10.0,NE,16.1,24.2,N/A,,Clear,50,2013-01-27 18:35:00
1:55 PM,64.4,51.8,64,30.39,10.0,NE,19.6,24.2,N/A,,Clear,40,2013-01-27 18:55:00
2:15 PM,64.4,51.8,64,30.38,10.0,ENE,19.6,24.2,N/A,,Clear,60,2013-01-27 19:15:00
2:35 PM,64.4,51.8,64,30.38,10.0,ENE,18.4,23.0,N/A,,Clear,60,2013-01-27 19:35:00
2:55 PM,64.4,51.8,64,30.39,10.0,NE,16.1,23.0,N/A,,Clear,50,2013-01-27 19:55:00
3:15 PM,64.4,51.8,64,30.39,10.0,NE,15.0,19.6,N/A,,Clear,40,2013-01-27 20:15:00
3:35 PM,62.6,51.8,68,30.39,10.0,NNE,12.7,23.0,N/A,,Mostly Cloudy,30,2013-01-27 20:35:00
3:55 PM,62.6,51.8,68,30.39,10.0,NE,18.4,23.0,N/A,,Mostly Cloudy,40,2013-01-27 20:55:00
4:15 PM,60.8,51.8,72,30.40,10.0,NE,17.3,21.9,N/A,,Mostly Cloudy,50,2013-01-27 21:15:00
4:35 PM,60.8,51.8,72,30.40,10.0,NE,15.0,20.7,N/A,,Overcast,40,2013-01-27 21:35:00
4:55 PM,59.0,51.8,77,30.41,10.0,ENE,16.1,23.0,N/A,,Overcast,60,2013-01-27 21:55:00
5:15 PM,59.0,51.8,77,30.41,10.0,NE,17.3,20.7,N/A,,Overcast,50,2013-01-27 22:15:00
5:35 PM,57.2,51.8,82,30.42,10.0,NE,13.8,23.0,N/A,,Overcast,40,2013-01-27 22:35:00
5:55 PM,57.2,51.8,82,30.42,10.0,NE,13.8,19.6,N/A,,Overcast,50,2013-01-27 22:55:00
6:15 PM,57.2,51.8,82,30.42,10.0,NE,11.5,18.4,N/A,,Overcast,50,2013-01-27 23:15:00
6:35 PM,57.2,51.8,82,30.42,10.0,NE,12.7,16.1,N/A,,Overcast,50,2013-01-27 23:35:00
6:55 PM,57.2,53.6,88,30.43,10.0,NE,12.7,-,N/A,,Overcast,50,2013-01-27 23:55:00
7:15 PM,57.2,53.6,88,30.43,10.0,NE,11.5,17.3,N/A,,Overcast,50,2013-01-28 00:15:00
7:35 PM,57.2,53.6,88,30.43,10.0,NE,10.4,16.1,N/A,,Overcast,40,2013-01-28 00:35:00
7:55 PM,57.2,53.6,88,30.43,10.0,NE,9.2,18.4,N/A,,Overcast,40,2013-01-28 00:55:00
8:15 PM,57.2,53.6,88,30.44,10.0,NE,11.5,-,N/A,,Overcast,40,2013-01-28 01:15:00
8:35 PM,57.2,53.6,88,30.44,10.0,NE,10.4,19.6,N/A,,Overcast,40,2013-01-28 01:35:00
8:55 PM,57.2,53.6,88,30.43,10.0,NE,11.5,-,N/A,,Overcast,40,2013-01-28 01:55:00
9:15 PM,57.2,53.6,88,30.44,10.0,NE,10.4,17.3,N/A,,Overcast,40,2013-01-28 02:15:00
9:35 PM,57.2,53.6,88,30.44,10.0,NE,8.1,17.3,N/A,,Overcast,40,2013-01-28 02:35:00
9:55 PM,57.2,53.6,88,30.43,10.0,NE,9.2,-,N/A,,Overcast,50,2013-01-28 02:55:00
10:15 PM,57.2,53.6,88,30.43,10.0,NE,8.1,-,N/A,,Overcast,40,2013-01-28 03:15:00
10:35 PM,57.2,53.6,88,30.42,10.0,NE,8.1,-,N/A,,Overcast,50,2013-01-28 03:35:00
10:55 PM,57.2,53.6,88,30.41,10.0,NE,9.2,-,N/A,,Overcast,50,2013-01-28 03:55:00
11:15 PM,57.2,53.6,88,30.41,10.0,NE,9.2,-,N/A,,Overcast,50,2013-01-28 04:15:00
11:35 PM,59.0,55.4,88,30.41,10.0,NE,8.1,-,N/A,,Overcast,50,2013-01-28 04:35:00
11:55 PM,59.0,55.4,88,30.41,10.0,NE,8.1,-,N/A,,Overcast,40,2013-01-28 04:55:00